When you browse on this site, cookies collect data to enhance your experience and personalize the content and advertising you see.
Visit our Privacy Policy to learn more. By continuing to use the site, you agree to this use of cookies and data.
  • In Czech Republic
  • List of Countries
  • For 7 days
  • Water Temperature
  • Satellite Maps
  • Weather Map
  • Weather Widgets
  • user-avatar
    Login

    Hourly Weather Mercer Island

    Today, 22 February, Friday

    Time Temperature Precipitation Wind Pressure Humidity
    00:00 -1°C° 0 mm 2 mps 763 mmHg 85%
    01:00 -1°C° 0 mm 2 mps 763 mmHg 85%
    02:00 -1°C° 0 mm 2 mps 763 mmHg 84%
    03:00 -1°C° 0 mm 2 mps 762 mmHg 83%
    04:00 -1°C° 0 mm 2 mps 762 mmHg 82%
    05:00 -1°C° 0 mm 2 mps 762 mmHg 80%
    06:00 -1°C° 0 mm 3 mps 761 mmHg 79%
    07:00 -1°C° 0 mm 3 mps 760 mmHg 78%
    08:00 0°C° 0.1 mm 4 mps 760 mmHg 74%
    09:00 +1°C° 0.1 mm 5 mps 759 mmHg 71%
    10:00 +3°C° 0.1 mm 5 mps 758 mmHg 68%
    11:00 +3°C° 0.9 mm 5 mps 758 mmHg 74%
    12:00 +2°C° 0.9 mm 5 mps 757 mmHg 80%
    13:00 +2°C° 0.9 mm 5 mps 757 mmHg 86%
    14:00 +4°C° 0.3 mm 4 mps 757 mmHg 85%
    15:00 +4°C° 0.3 mm 3 mps 757 mmHg 84%
    16:00 +5°C° 0.3 mm 3 mps 757 mmHg 84%
    17:00 +5°C° 0.8 mm 2 mps 758 mmHg 87%
    18:00 +4°C° 0.8 mm 2 mps 758 mmHg 90%
    19:00 +3°C° 0.8 mm 2 mps 759 mmHg 93%
    20:00 +2°C° 0.2 mm 2 mps 759 mmHg 93%
    21:00 +2°C° 0.2 mm 2 mps 760 mmHg 94%
    22:00 +2°C° 0.2 mm 2 mps 760 mmHg 94%
    23:00 +1°C° 0.1 mm 2 mps 761 mmHg 94%

    Tomorrow, 23 February, Saturday

    Time Temperature Precipitation Wind Pressure Humidity
    00:00 +1°C° 0.1 mm 2 mps 761 mmHg 94%
    01:00 +1°C° 0.1 mm 2 mps 761 mmHg 94%
    02:00 +1°C° 0.3 mm 2 mps 762 mmHg 94%
    03:00 +1°C° 0.3 mm 2 mps 762 mmHg 95%
    04:00 +1°C° 0.3 mm 2 mps 762 mmHg 95%
    05:00 +1°C° 0.2 mm 2 mps 762 mmHg 95%
    06:00 +1°C° 0.2 mm 2 mps 763 mmHg 96%
    07:00 +1°C° 0.2 mm 2 mps 763 mmHg 96%
    08:00 +2°C° 0.1 mm 2 mps 763 mmHg 93%
    09:00 +3°C° 0.1 mm 2 mps 763 mmHg 90%
    10:00 +4°C° 0.1 mm 2 mps 763 mmHg 88%
    11:00 +5°C° 0.3 mm 2 mps 763 mmHg 85%
    12:00 +6°C° 0.3 mm 2 mps 763 mmHg 83%
    13:00 +6°C° 0.3 mm 2 mps 763 mmHg 80%
    14:00 +6°C° 0.5 mm 2 mps 763 mmHg 82%
    15:00 +6°C° 0.5 mm 2 mps 763 mmHg 83%
    16:00 +5°C° 0.5 mm 2 mps 763 mmHg 85%
    17:00 +5°C° 0.3 mm 2 mps 763 mmHg 87%
    18:00 +4°C° 0.3 mm 2 mps 763 mmHg 89%
    19:00 +3°C° 0.3 mm 2 mps 763 mmHg 90%
    20:00 +3°C° 0.1 mm 2 mps 763 mmHg 91%
    21:00 +3°C° 0.1 mm 2 mps 763 mmHg 91%
    22:00 +2°C° 0.1 mm 2 mps 763 mmHg 91%
    23:00 +3°C° 0 mm 1 mps 763 mmHg 91%

    Day after tomorrow, 24 February, Sunday

    Time Temperature Precipitation Wind Pressure Humidity
    00:00 +2°C° 0 mm 1 mps 763 mmHg 91%
    01:00 +2°C° 0 mm 1 mps 763 mmHg 91%
    02:00 +2°C° 0 mm 1 mps 762 mmHg 91%
    03:00 +1°C° 0 mm 1 mps 762 mmHg 91%
    04:00 +1°C° 0 mm 1 mps 761 mmHg 90%
    05:00 0°C° 0 mm 1 mps 761 mmHg 90%
    06:00 0°C° 0 mm 1 mps 761 mmHg 90%
    07:00 -1°C° 0 mm 1 mps 760 mmHg 90%
    08:00 +1°C° 0 mm 1 mps 760 mmHg 86%
    09:00 +3°C° 0 mm 1 mps 760 mmHg 82%
    10:00 +3°C° 0 mm 2 mps 760 mmHg 78%
    11:00 +4°C° 0 mm 2 mps 760 mmHg 76%
    12:00 +5°C° 0 mm 2 mps 759 mmHg 75%
    13:00 +5°C° 0 mm 3 mps 759 mmHg 74%
    14:00 +4°C° 0.1 mm 3 mps 759 mmHg 75%
    15:00 +4°C° 0.1 mm 3 mps 759 mmHg 76%
    16:00 +4°C° 0.1 mm 3 mps 759 mmHg 77%
    17:00 +3°C° 0 mm 3 mps 759 mmHg 80%
    18:00 +1°C° 0 mm 3 mps 759 mmHg 83%
    19:00 +1°C° 0 mm 2 mps 759 mmHg 87%
    20:00 +1°C° 0 mm 2 mps 759 mmHg 87%
    21:00 +1°C° 0 mm 2 mps 759 mmHg 87%
    22:00 +1°C° 0 mm 2 mps 759 mmHg 87%
    23:00 +1°C° 0 mm 2 mps 759 mmHg 87%

    25 February, Monday

    Time Temperature Precipitation Wind Pressure Humidity
    00:00 +1°C° 0 mm 2 mps 758 mmHg 86%
    01:00 -1°C° 0 mm 2 mps 758 mmHg 86%
    02:00 -1°C° 0 mm 2 mps 757 mmHg 85%
    03:00 -1°C° 0 mm 2 mps 757 mmHg 85%
    04:00 -1°C° 0 mm 2 mps 756 mmHg 85%
    05:00 -1°C° 0.1 mm 3 mps 756 mmHg 84%
    06:00 -1°C° 0.1 mm 3 mps 755 mmHg 84%
    07:00 -1°C° 0.1 mm 3 mps 755 mmHg 84%
    08:00 -1°C° 0.2 mm 3 mps 754 mmHg 82%
    09:00 -1°C° 0.2 mm 4 mps 754 mmHg 79%
    10:00 -1°C° 0.2 mm 4 mps 753 mmHg 77%
    11:00 -1°C° 0.2 mm 4 mps 753 mmHg 76%
    12:00 0°C° 0.2 mm 4 mps 753 mmHg 75%
    13:00 0°C° 0.2 mm 4 mps 753 mmHg 74%
    14:00 0°C° 0.2 mm 4 mps 753 mmHg 74%
    15:00 0°C° 0.2 mm 4 mps 753 mmHg 74%
    16:00 0°C° 0.2 mm 4 mps 753 mmHg 74%
    17:00 0°C° 0.1 mm 3 mps 753 mmHg 76%
    18:00 -1°C° 0.1 mm 2 mps 754 mmHg 78%
    19:00 +1°C° 0.1 mm 1 mps 755 mmHg 81%
    20:00 0°C° 0 mm 1 mps 755 mmHg 84%
    21:00 0°C° 0 mm 1 mps 756 mmHg 86%
    22:00 0°C° 0 mm 1 mps 757 mmHg 89%
    23:00 -1°C° 0.1 mm 1 mps 758 mmHg 90%

    26 February, Tuesday

    Time Temperature Precipitation Wind Pressure Humidity
    00:00 -1°C° 0.1 mm 1 mps 758 mmHg 90%
    01:00 -1°C° 0.1 mm 1 mps 759 mmHg 91%
    02:00 -1°C° 0 mm 1 mps 760 mmHg 90%
    03:00 -1°C° 0 mm 1 mps 760 mmHg 89%
    04:00 -1°C° 0 mm 1 mps 761 mmHg 88%
    05:00 -1°C° 0 mm 1 mps 761 mmHg 89%
    06:00 -2°C° 0 mm 1 mps 762 mmHg 89%
    07:00 -3°C° 0 mm 1 mps 762 mmHg 90%
    08:00 -1°C° 0 mm 1 mps 762 mmHg 82%
    09:00 +1°C° 0 mm 1 mps 762 mmHg 74%
    10:00 +2°C° 0 mm 2 mps 762 mmHg 67%
    11:00 +4°C° 0 mm 2 mps 762 mmHg 65%
    12:00 +4°C° 0 mm 3 mps 762 mmHg 63%
    13:00 +5°C° 0 mm 3 mps 762 mmHg 61%
    14:00 +5°C° 0 mm 3 mps 762 mmHg 62%
    15:00 +5°C° 0 mm 3 mps 761 mmHg 63%
    16:00 +4°C° 0 mm 3 mps 761 mmHg 63%
    17:00 +3°C° 0 mm 3 mps 761 mmHg 68%
    18:00 +2°C° 0 mm 3 mps 762 mmHg 72%
    19:00 0°C° 0 mm 3 mps 762 mmHg 76%
    20:00 0°C° 0 mm 3 mps 762 mmHg 77%
    21:00 -1°C° 0 mm 3 mps 762 mmHg 78%
    22:00 -2°C° 0 mm 3 mps 762 mmHg 80%
    23:00 -2°C° 0 mm 2 mps 762 mmHg 79%

    27 February, Wednesday

    Time Temperature Precipitation Wind Pressure Humidity
    00:00 -2°C° 0 mm 2 mps 762 mmHg 78%
    01:00 -2°C° 0 mm 2 mps 762 mmHg 78%
    02:00 -1°C° 0 mm 2 mps 762 mmHg 78%
    03:00 -1°C° 0 mm 2 mps 762 mmHg 78%
    04:00 -1°C° 0 mm 2 mps 762 mmHg 78%
    05:00 -1°C° 0 mm 2 mps 762 mmHg 78%
    06:00 -1°C° 0 mm 2 mps 761 mmHg 78%
    07:00 -1°C° 0 mm 2 mps 761 mmHg 78%
    08:00 -1°C° 0.4 mm 2 mps 761 mmHg 81%
    09:00 -1°C° 0.4 mm 2 mps 762 mmHg 83%
    10:00 +1°C° 0.4 mm 2 mps 762 mmHg 86%
    11:00 +1°C° 1.1 mm 2 mps 762 mmHg 88%
    12:00 +1°C° 1.1 mm 2 mps 762 mmHg 89%
    13:00 +1°C° 1.1 mm 2 mps 762 mmHg 91%
    14:00 +2°C° 0.5 mm 2 mps 762 mmHg 92%
    15:00 +3°C° 0.5 mm 1 mps 762 mmHg 93%
    16:00 +3°C° 0.5 mm 1 mps 762 mmHg 94%
    17:00 +3°C° 0 mm 1 mps 762 mmHg 95%
    18:00 +2°C° 0 mm 0 mps 762 mmHg 96%
    19:00 +2°C° 0 mm 0 mps 762 mmHg 96%
    20:00 +2°C° 0 mm 0 mps 762 mmHg 96%
    21:00 +2°C° 0 mm 0 mps 762 mmHg 96%
    22:00 +2°C° 0 mm 1 mps 762 mmHg 96%
    23:00 +3°C° 0.3 mm 1 mps 762 mmHg 96%
    Show more